User: anonymous   Login
Location: Unspecified
(0.0000°N, 0.0000°E)
Time: 21:44:52
(UTC+00:00)
Language:

Tiangong 2 - Orbit

View from above orbital plane
View from above orbital plane
View from above satellite
View from above satellite

Ground track
Ground track

The orbit data is extracted from the following two-line orbital elements,

1 41765U 16057A   17083.61295527 +.00008726 +00000-0 +97472-4 0  9994
2 41765 042.7827 139.1551 0007260 015.5906 114.9034 15.63020238029767
Epoch (UTC): 24 March 2017 14:42:39
Eccentricity: 0.0007260
inclination: 42.7827°
perigee height: 374 km
apogee height: 384 km
right ascension of ascending node: 139.1551°
argument of perigee: 15.5906°
revolutions per day: 15.63020238
mean anomaly at epoch: 114.9034°
orbit number at epoch: 2976

The dashed part of the orbit path shows where the satellite is in the earth's shadow,  

DLR